This is the latest recevied weather packets stored in our database for station/object KD8FRE. If no packets are shown the sender has not sent any weather packets the latest 10 day(s).
| Time | Temp. | Humidity | Pressure | Rain* | Wind** | Luminosity | Snow |
|---|---|---|---|---|---|---|---|
| 1777852270 | 12.78° C | 54% | 1009.5 hPa | 0 mm | - | 14 W/m² | - |
| 1777851968 | 13.33° C | 55% | 1009.6 hPa | 0 mm | - | 16 W/m² | - |
| 1777851666 | 13.33° C | 54% | 1009.4 hPa | 0 mm | - | 22 W/m² | - |
| 1777851363 | 13.33° C | 53% | 1009.4 hPa | 0 mm | - | 21 W/m² | - |
| 1777851058 | 13.33° C | 54% | 1009.3 hPa | 0 mm | - | 19 W/m² | - |
| 1777850755 | 13.89° C | 54% | 1009.4 hPa | 0 mm | - | 21 W/m² | - |
| 1777850453 | 13.89° C | 52% | 1009.3 hPa | 0 mm | - | 21 W/m² | - |
| 1777850151 | 13.89° C | 52% | 1009.5 hPa | 0 mm | - | 25 W/m² | - |
| 1777849847 | 14.44° C | 50% | 1009.6 hPa | 0 mm | - | 36 W/m² | - |
| 1777849544 | 14.44° C | 49% | 1009.6 hPa | 0 mm | - | 34 W/m² | - |
| 1777849241 | 14.44° C | 47% | 1009.5 hPa | 0 mm | - | 24 W/m² | - |
| 1777848938 | 14.44° C | 46% | 1009.6 hPa | 0 mm | - | 19 W/m² | - |
| 1777848633 | 14.44° C | 47% | 1009.4 hPa | 0 mm | - | 17 W/m² | - |
| 1777848331 | 15° C | 46% | 1009.5 hPa | 0 mm | - | 17 W/m² | - |
| 1777848028 | 15° C | 48% | 1009.5 hPa | 0 mm | - | 23 W/m² | - |
| 1777847726 | 15° C | 45% | 1009.5 hPa | 0 mm | - | 39 W/m² | - |
| 1777847421 | 15° C | 45% | 1009.7 hPa | 0 mm | - | 57 W/m² | - |
| 1777847120 | 15° C | 46% | 1009.5 hPa | 0 mm | - | 63 W/m² | - |
| 1777846817 | 15° C | 44% | 1009.7 hPa | 0 mm | - | 69 W/m² | - |
| 1777846515 | 15° C | 43% | 1009.4 hPa | 0 mm | - | 60 W/m² | - |
| 1777846213 | 15.56° C | 43% | 1009.7 hPa | 0 mm | - | 46 W/m² | - |
| 1777845909 | 15.56° C | 44% | 1009.6 hPa | 0 mm | - | 49 W/m² | - |
| 1777845605 | 15.56° C | 43% | 1009.6 hPa | 0 mm | - | 74 W/m² | - |
| 1777845303 | 15.56° C | 42% | 1009.4 hPa | 0 mm | - | 122 W/m² | - |
| 1777845000 | 15.56° C | 43% | 1009.5 hPa | 0 mm | - | 118 W/m² | - |
* Rain latest hour (hover to see other rain measurements)
** Current wind speed in m/s (hover to see current wind gust speed)